{"data":{"norad_id":69785,"intl_designator":"2026-151Y","name":"KUIPER-00634","alt_names":[],"object_type":"PAYLOAD","status":"ACTIVE","operator":null,"country":"US","launch_date":"2026-07-02","launch_site_code":"AFETR","launch_vehicle":null,"mission":null,"orbit_class":"UNKNOWN","rcs_meters":null,"size_class":null,"mass_kg":null,"dimensions":null,"purposes":[],"wikipedia_slug":null,"has_3d_model":false,"image_url":null,"decayed_at":null,"tle_current":{"epoch":"2026-09-19T22:45:36.658080Z","epoch_age_seconds":73166,"freshness":"FRESH","line1":"1 69785U 26151Y   26262.94834095  .00001971  00000+0  28747-3 0  9998","line2":"2 69785  51.8999 234.1377 0000826  96.8739 263.2317 14.79927889 12059","mean_motion":14.79927889,"eccentricity":8.26e-5,"inclination_deg":51.8999,"raan_deg":234.1377,"arg_perigee_deg":96.8739,"mean_anomaly_deg":263.2317,"bstar":0.00028747,"rev_number":1205,"period_min":97.30203820762,"perigee_km":628.97292829006,"apogee_km":630.13059847377,"semimajor_km":7007.6887633819,"source":"CELESTRAK","updated_at":"2026-09-20T09:00:25.094755Z"}}}